Dewpoint
40 39 40 38 40 43 44 38 31 41 44 29 32 30 33 34 35 39 36 31 28 27 30 28 27 27 29 30 30 28 29 29 25 27 29 30 30 28 26 20 16 23 23 21
40 39 40 39 42 44 43 36 36 41 40 28 27 34 33 34 37 36 31 28 28 29 28 26 27 28 30 30 29 29 30 27 22 25 27 30 28 29 28 26 26 21 20 19
40 40 39 41 42 44 40 36 30 35 37 37 34 33 32 33 38 37 32 28 28 28 28 31 30 29 31 31 32 33 30 28 24 21 25 28 25 26 27 27 25 22 22 22
40 40 38 41 42 44 41 37 33 35 31 33 36 36 35 34 33 34 32 28 29 30 28 30 30 31 32 33 32 32 30 27 28 28 29 29 28 27 27 25 26 25 23 24
40 39 38 39 42 43 39 35 33 36 34 37 35 35 34 35 33 33 30 28 30 30 30 29 29 31 31 31 32 30 32 26 29 26 27 29 28 28 28 29 28 27 27 29
35 37 38 37 39 41 39 40 40 37 35 36 34 34 35 35 34 32 31 31 33 33 33 33 33 32 32 33 31 30 31 28 28 23 26 27 26 28 29 29 31 31 32 35
35 35 36 36 39 39 40 40 40 36 30 34 32 32 34 34 34 32 34 36 35 36 36 35 35 36 36 34 32 33 33 29 30 24 27 22 26 31 32 32 34 37 38 39
36 35 35 36 39 38 38 41 40 37 32 34 33 32 34 35 34 35 37 38 39 39 38 33 32 32 31 33 35 34 34 31 30 26 25 24 28 34 32 32 34 39 38 37
35 36 36 35 36 38 38 41 44 40 35 32 37 34 33 34 34 35 38 41 41 39 36 32 27 25 26 30 32 34 35 35 31 28 21 20 29 33 35 38 33 39 39 40
36 35 35 36 36 36 38 39 43 40 36 38 39 34 34 37 34 34 37 38 38 39 33 30 28 26 28 28 28 30 32 32 29 25 25 25 27 33 39 30 31 38 40 42
35 35 35 35 35 36 38 36 42 39 36 37 39 41 40 38 36 34 39 36 37 36 32 30 30 30 29 28 31 30 28 28 28 28 26 21 30 37 33 34 37 39 40 40
35 35 35 35 35 38 39 35 40 42 37 38 42 43 44 45 43 40 40 38 37 38 35 34 35 30 31 30 26 32 28 29 28 28 26 27 31 34 37 37 36 37 38 41
35 35 34 34 35 36 38 38 38 40 39 40 43 41 45 46 45 45 38 40 40 39 42 37 36 33 34 31 29 31 32 31 32 32 33 32 33 36 37 36 35 35 36 41
35 35 35 35 34 36 38 38 39 38 36 35 40 45 43 46 47 46 46 43 44 42 41 37 36 35 37 34 35 34 34 33 32 32 33 35 36 36 36 35 33 33 34 39
36 35 35 34 35 38 40 39 39 40 36 35 38 41 45 46 46 46 46 43 42 41 39 38 36 37 36 36 37 34 35 34 33 33 35 36 36 36 35 34 32 33 35 39
36 36 34 36 39 40 38 36 43 42 42 38 35 43 44 46 46 45 44 44 43 42 40 38 38 40 38 35 34 34 35 36 35 35 37 37 36 34 33 32 31 33 35 37
36 35 36 38 40 41 34 37 41 44 41 38 36 37 43 45 45 45 45 45 44 43 41 38 38 38 38 36 32 33 34 35 37 38 37 36 35 34 31 31 31 31 30 31
35 37 38 41 42 41 36 38 39 41 39 41 36 34 37 44 41 39 44 41 42 41 40 39 38 38 37 34 36 37 38 39 38 38 37 37 35 32 30 30 28 28 27 26
37 40 41 40 34 35 39 44 45 45 41 37 37 32 31 43 41 42 41 40 34 39 37 37 40 36 34 37 38 39 39 38 37 37 36 34 33 32 30 28 27 26 25 25
39 41 39 36 39 42 43 42 40 40 41 41 37 39 34 40 40 38 39 40 35 32 36 39 36 35 38 33 33 35 36 38 38 37 36 35 33 31 30 28 27 26 25 23
34 33 33 38 41 41 39 37 36 37 36 39 39 38 35 41 36 37 39 35 34 30 33 33 33 34 32 30 32 34 36 36 36 38 38 38 36 33 31 29 27 25 23 20
34 36 38 39 38 37 34 34 35 35 33 38 37 38 38 39 41 38 38 33 32 29 35 31 30 32 28 29 31 34 35 36 36 37 37 38 36 33 31 30 27 24 20 20
40 37 34 34 34 30 30 29 31 32 36 35 36 36 38 39 39 37 35 32 31 35 31 30 32 29 29 30 32 33 36 36 35 36 39 38 36 35 33 32 29 21 19 18
34 31 27 28 29 30 31 31 32 34 34 35 36 36 36 37 36 36 33 34 32 29 27 30 30 29 29 31 31 32 34 36 34 35 38 40 36 33 32 30 27 22 18 18
31 31 25 29 32 33 33 33 34 35 36 36 36 35 34 34 34 34 32 30 27 30 30 30 29 29 29 29 29 30 32 33 34 34 34 34 32 29 25 23 21 20 19 18
31 31 28 31 29 31 32 32 33 35 35 36 35 33 32 30 33 30 28 26 26 30 28 29 28 28 28 28 29 30 31 32 32 32 32 30 28 26 23 21 21 20 19 18
29 25 30 31 30 31 32 32 33 35 34 31 32 31 30 32 31 28 31 28 28 27 27 26 27 27 27 27 29 30 30 31 30 30 30 29 26 23 22 22 24 23 20 17
Wind_Speed
24 25 27 29 30 32 12 3 5 8 5 2 2 4 2 6 5 6 6 1 13 16 9 14 5 16 5 21 17 10 4 4 5 10 7 12 10 7 8 5 3 6 2 14
22 24 27 29 32 32 5 4 3 4 4 4 5 6 5 5 4 7 1 6 6 20 10 10 6 10 2 21 20 15 9 5 5 4 2 5 9 14 11 11 1 12 5 12
22 23 27 29 33 31 3 2 3 4 3 2 5 4 6 6 7 5 1 10 22 12 9 8 9 8 5 7 10 13 8 5 6 8 3 5 7 11 16 17 9 11 21 26
22 23 26 29 32 31 1 6 3 3 5 4 5 7 6 7 10 10 10 19 15 11 7 16 8 9 6 10 4 5 4 5 5 9 13 10 13 14 16 23 28 16 34 26
21 23 25 27 30 29 4 3 4 4 4 7 2 2 3 4 8 10 7 12 6 16 10 6 10 11 4 4 3 4 2 2 2 11 13 15 18 19 21 26 30 25 34 39
21 22 23 24 26 20 4 4 2 2 7 5 3 2 2 4 7 15 13 14 15 17 11 15 11 11 13 13 12 7 6 4 1 5 5 7 9 17 23 14 13 15 18 20
17 19 19 19 22 19 6 5 3 3 5 7 8 5 1 5 6 3 11 13 7 2 3 8 11 15 13 10 12 12 8 6 3 5 6 2 6 5 8 12 10 10 14 15
17 17 17 17 19 18 8 4 2 2 3 6 8 12 6 6 11 14 14 10 5 5 4 3 4 3 2 4 6 9 4 7 2 3 5 9 1 2 3 5 5 5 10 14
16 16 15 15 16 17 12 6 4 2 3 4 4 5 4 2 3 3 4 6 7 5 2 2 3 5 4 5 4 6 6 3 2 3 2 3 2 3 2 6 3 8 6 8
14 16 17 14 14 15 11 5 5 4 3 5 2 2 2 1 1 2 3 3 2 4 1 2 1 2 1 5 10 7 6 4 10 8 4 9 13 6 5 4 5 5 5 1
13 14 15 16 12 12 8 9 1 4 4 10 4 3 3 4 2 2 3 3 1 1 1 1 1 2 3 2 9 9 12 10 6 8 5 9 4 4 3 6 4 2 4 5
14 14 14 15 13 11 8 3 6 2 6 7 4 11 11 4 2 2 3 1 4 4 2 1 2 2 3 2 3 5 5 9 8 11 10 9 5 9 2 2 3 2 3 7
15 15 15 14 13 11 7 5 5 4 4 6 3 5 3 5 3 1 4 2 4 2 1 2 1 4 2 3 4 5 6 13 5 5 8 16 18 2 1 2 0 2 2 9
16 16 15 15 14 13 9 5 4 5 5 3 2 1 1 1 1 2 2 5 5 5 3 2 4 4 3 4 4 3 5 4 8 10 17 4 2 1 1 1 2 1 1 6
17 17 16 15 15 14 10 9 8 11 3 3 5 10 1 3 1 1 2 5 6 4 4 4 5 3 3 5 4 10 6 10 10 8 5 3 2 0 1 1 2 1 4 10
18 19 17 17 15 12 3 3 2 9 8 4 4 3 2 2 2 1 3 5 5 5 5 5 5 4 3 5 5 10 13 10 17 11 5 2 4 2 2 4 4 5 7 13
20 20 18 18 13 7 5 1 1 3 3 3 4 3 0 3 3 3 3 3 4 4 4 5 5 4 6 5 8 11 19 14 11 5 9 2 7 4 6 7 9 10 12 12
23 21 15 14 4 5 5 6 9 8 4 3 3 4 3 3 2 2 3 3 3 5 2 3 5 5 7 7 13 13 14 16 5 5 4 3 9 12 10 10 10 13 13 15
24 11 5 0 2 3 2 1 5 8 3 3 3 2 2 3 2 2 3 3 4 2 5 4 3 5 6 7 7 9 6 4 1 4 6 8 8 11 12 11 11 13 12 13
17 2 2 2 2 4 3 3 4 3 5 5 4 3 4 5 3 2 2 3 3 3 4 1 7 5 9 11 9 9 12 11 3 3 3 5 7 12 13 13 11 11 13 14
4 4 2 5 6 1 2 5 6 5 4 4 4 4 3 1 4 3 3 2 2 2 1 2 2 1 6 17 16 14 12 12 12 12 7 8 9 17 16 13 12 13 14 15
5 5 5 3 1 3 3 4 2 4 3 1 2 2 2 2 0 2 3 2 1 3 1 1 0 3 15 16 17 18 14 12 8 3 6 6 9 16 15 16 15 15 15 18
3 2 2 1 2 3 5 6 3 3 2 1 2 1 1 1 1 2 1 2 3 0 1 1 1 9 13 16 15 17 14 13 8 6 2 8 13 16 18 17 15 16 17 18
2 1 2 4 4 3 1 1 2 2 1 2 1 1 1 1 2 1 2 1 1 2 1 1 4 13 15 14 14 13 14 14 9 6 1 10 12 13 15 18 19 20 20 18
2 1 3 5 2 1 1 1 1 1 2 3 2 3 0 1 2 1 1 2 3 2 1 3 11 13 13 14 14 13 13 12 9 7 3 7 12 14 15 15 16 16 17 19
2 3 3 2 1 4 3 2 2 3 4 1 0 2 2 3 3 3 4 2 3 2 3 7 12 12 12 13 14 13 13 12 10 7 3 4 9 13 14 14 15 15 16 19
2 3 2 3 3 0 2 2 2 3 1 1 1 3 4 1 2 3 2 2 3 1 5 9 9 11 13 14 13 13 12 11 9 6 2 3 7 13 15 16 13 13 13 15
Wind_Direction
352 352 348 348 352 348 345 45 62 332 354 48 316 285 14 354 328 218 270 193 118 155 144 155 133 185 203 191 174 182 129 111 165 208 208 216 201 205 192 183 223 241 238 263
357 355 351 352 354 356 344 42 35 10 6 13 337 314 344 238 304 328 148 133 132 142 136 149 142 134 3 177 168 176 136 153 155 128 328 176 206 219 213 216 336 252 251 263
359 358 355 358 358 356 69 40 62 335 24 279 277 359 329 327 287 286 40 130 129 126 129 116 131 114 50 112 139 154 139 162 212 180 109 134 204 207 204 203 205 251 237 269
3 1 359 359 2 356 55 22 29 50 332 317 294 4 347 357 22 5 57 114 126 144 146 121 115 103 98 77 90 112 117 202 241 266 264 246 237 229 221 221 233 240 271 274
5 3 0 1 5 356 59 66 1 336 285 294 32 26 359 24 11 17 76 142 108 83 66 196 151 135 133 163 138 120 89 248 322 292 267 240 243 241 229 233 245 252 258 275
356 357 358 3 8 11 358 1 322 322 297 330 18 16 211 285 356 28 68 84 82 71 48 64 106 152 166 160 155 148 161 190 188 272 304 315 256 243 217 223 233 234 254 262
0 355 356 2 7 16 344 327 332 328 313 343 352 354 135 112 25 60 38 44 79 3 55 66 58 65 80 121 164 153 165 185 198 277 317 227 323 272 175 217 248 257 257 280
357 354 356 358 5 5 355 299 280 316 307 315 337 11 121 100 85 80 68 54 68 58 49 109 105 87 128 194 179 186 158 175 239 285 301 291 265 208 218 205 249 227 263 281
352 349 351 354 359 2 354 310 328 294 308 257 312 341 13 136 114 85 83 40 30 45 74 61 172 189 175 149 142 213 186 181 188 341 323 271 199 217 182 152 279 223 234 309
347 343 343 349 355 356 354 289 342 286 279 277 323 260 307 272 294 122 126 127 41 23 122 169 204 269 283 173 170 171 181 191 215 230 257 279 263 222 167 344 293 217 196 204
338 339 337 337 351 353 359 298 318 17 306 280 245 293 348 344 19 134 173 95 36 78 131 221 249 267 274 296 154 171 182 178 189 192 208 258 253 148 244 268 267 227 191 151
330 331 332 331 337 348 357 299 333 276 234 264 294 275 266 255 247 104 148 140 154 172 117 240 303 316 288 280 250 168 210 193 183 191 217 245 295 289 319 7 308 329 183 148
325 324 327 326 325 329 336 295 299 278 264 275 283 251 221 202 239 188 173 218 161 158 116 150 249 267 317 267 249 225 231 203 238 181 265 255 273 212 343 38 266 273 235 151
321 321 321 318 314 309 301 270 252 294 271 279 244 218 180 127 84 108 143 158 98 126 136 176 222 232 187 262 279 288 258 161 219 249 279 279 188 167 274 69 60 356 258 164
318 316 315 312 302 302 306 268 242 221 261 306 288 305 184 69 58 140 120 159 148 157 174 204 224 234 253 254 260 246 213 228 225 234 249 258 263 292 68 162 98 71 142 124
315 311 310 303 297 294 311 313 155 192 186 274 324 359 152 95 90 168 218 218 196 186 191 202 196 248 190 268 242 253 235 247 242 236 197 163 152 128 153 146 123 108 118 143
316 312 308 302 281 233 188 248 53 69 10 250 287 285 206 159 168 212 217 202 190 197 201 219 195 228 194 246 250 286 299 308 322 223 144 180 196 220 160 138 124 111 104 112
318 312 309 312 216 161 248 270 246 206 249 257 265 270 311 176 209 247 193 192 186 204 249 223 200 199 204 252 244 264 281 291 307 236 241 219 134 137 147 139 135 126 128 125
319 314 316 83 157 195 202 5 293 197 239 274 196 228 287 176 231 237 196 167 218 251 217 224 218 192 224 246 302 322 353 346 259 80 97 124 153 165 161 157 154 143 143 134
319 85 184 196 150 325 326 129 187 173 216 229 240 214 266 173 186 266 272 187 231 231 214 229 204 251 273 13 348 331 321 312 243 225 239 206 197 186 178 180 168 159 148 136
355 10 298 319 317 131 202 202 196 181 223 212 230 215 246 221 235 244 211 278 215 255 163 219 219 311 3 345 340 337 326 311 289 259 257 231 223 189 176 164 154 150 141 136
295 286 288 286 285 225 210 187 197 222 229 203 192 176 235 280 230 229 221 252 258 255 338 233 329 26 339 342 339 336 331 330 311 246 243 217 183 162 153 147 143 136 134 137
259 187 276 232 201 239 199 184 202 211 205 313 26 176 272 281 238 253 265 261 253 286 221 202 109 343 339 340 337 339 347 355 351 342 183 153 146 146 148 142 137 140 146 149
288 69 253 212 189 223 177 134 100 15 6 345 325 274 253 287 255 253 258 260 326 284 233 73 10 341 333 334 341 352 356 350 347 358 112 161 155 147 143 145 152 154 156 152
263 151 235 224 174 176 170 151 119 353 311 2 344 306 283 269 242 208 303 255 252 241 84 22 342 335 336 340 344 345 348 347 357 359 36 133 144 145 141 149 156 156 149 150
237 246 265 224 224 201 181 127 131 19 343 335 124 298 274 255 223 193 224 240 228 124 357 328 333 335 338 341 344 345 344 349 355 1 20 135 147 151 146 137 141 149 154 154
231 248 299 312 297 260 149 128 113 349 4 221 236 222 214 291 237 237 217 210 113 333 322 330 335 336 341 344 345 348 349 350 351 351 19 150 142 136 141 154 155 153 154 148